Theta_e
327 325 325 328 329 326 323 323 325 329 328 329 327 327 327 327 327 326 321 315 313 311 310 309 308 308 308 308 308 308 310 310 309 310 310 310 310 310 309 308 307 307 307 306
330 327 326 330 328 328 328 329 330 328 327 325 325 326 327 327 325 324 316 314 312 311 308 307 306 305 305 305 305 306 306 305 305 306 306 306 306 307 306 306 306 306 306 306
331 329 327 328 329 329 329 329 329 329 327 327 327 327 327 325 323 316 314 312 310 307 305 303 303 303 303 303 303 303 302 302 302 302 302 303 304 305 306 306 306 306 306 308
329 327 330 327 326 328 328 327 329 326 327 320 318 317 319 318 314 313 311 309 306 304 302 302 302 302 302 301 300 299 299 299 299 299 300 301 303 304 306 306 306 307 307 307
324 327 328 327 325 327 327 328 326 325 318 315 314 313 311 311 310 308 306 305 303 302 302 301 301 301 300 299 297 297 296 296 296 297 299 300 302 304 305 305 306 307 307 306
321 327 332 328 325 322 323 327 322 318 316 316 318 317 312 309 308 307 305 304 302 301 301 300 299 299 298 296 296 295 295 294 295 297 298 300 301 302 303 305 305 306 306 304
321 327 326 324 324 322 324 323 321 317 317 317 314 313 309 307 307 306 305 303 302 301 299 298 297 297 296 296 296 296 294 294 294 295 297 299 300 301 302 304 304 302 301 302
320 325 326 321 323 322 320 316 316 314 312 312 311 310 309 307 305 304 303 302 301 299 298 297 296 295 295 295 295 296 295 293 293 295 296 298 299 299 299 299 298 299 299 297
323 327 319 318 318 316 314 313 313 312 312 311 310 308 307 305 301 301 301 301 300 299 298 296 295 294 294 295 295 296 295 294 293 294 295 297 296 295 295 295 295 296 296 293
322 320 317 315 314 313 312 311 310 310 309 308 307 303 302 300 299 298 298 297 297 296 296 294 294 294 294 294 295 295 295 294 294 294 293 294 295 294 293 292 292 293 293 292
319 316 314 313 312 311 310 309 308 307 305 303 302 301 300 299 298 297 296 296 295 295 294 293 293 293 292 293 293 294 295 295 294 295 295 294 294 294 293 292 291 291 292 291
320 315 313 311 309 308 307 306 304 303 301 300 299 298 298 297 296 295 294 294 294 293 293 293 292 292 292 293 294 295 296 294 294 295 294 294 293 294 293 292 291 290 290 291
316 312 309 308 306 305 304 303 302 301 300 299 297 297 297 295 295 295 293 293 292 292 293 292 292 291 293 293 294 295 294 293 294 295 295 294 294 293 293 293 292 290 289 290
311 308 307 305 305 304 304 303 302 301 299 298 297 296 296 295 294 293 292 292 291 292 292 292 291 291 292 293 294 294 293 293 293 294 293 293 294 293 293 292 291 290 289 289
311 309 305 303 303 303 302 302 302 301 299 298 296 296 295 294 293 292 292 291 290 291 292 292 291 290 291 293 292 292 291 291 291 291 291 291 290 290 291 290 291 290 289 288
307 306 304 303 303 303 302 302 301 300 299 297 296 295 294 293 293 292 292 291 290 290 290 291 291 291 291 291 291 291 290 290 290 289 289 289 288 288 289 289 288 288 288 286
309 307 305 304 303 303 302 302 301 300 299 297 296 295 294 293 292 292 291 290 290 290 290 290 290 290 291 291 290 289 289 288 288 288 287 287 287 286 286 287 287 286 287 286
310 307 306 304 303 303 303 302 301 300 299 298 296 295 294 293 293 292 291 290 288 289 290 290 290 290 290 290 289 288 288 287 286 286 286 285 285 284 284 285 285 285 285 285
309 308 305 304 304 303 302 301 300 299 299 298 296 295 294 293 293 292 291 289 288 288 288 290 289 289 290 289 289 288 286 286 285 285 285 284 283 283 283 283 283 283 283 283
308 304 303 303 303 301 301 300 299 298 297 297 296 294 293 292 291 290 290 289 288 288 288 288 288 289 290 289 288 286 286 285 285 285 285 284 283 282 282 282 282 282 282 282
303 303 302 302 301 301 300 299 298 297 296 296 296 295 293 291 290 289 288 288 288 287 288 288 289 289 290 288 287 287 286 285 285 285 285 284 283 282 282 282 282 282 282 282
301 300 300 300 300 299 299 299 298 297 296 295 294 293 293 292 291 289 288 288 288 288 288 289 289 290 289 288 287 287 287 286 285 285 285 283 282 282 282 282 282 282 282 282
300 299 299 299 298 297 298 297 297 296 296 295 293 292 291 291 290 290 289 289 288 288 289 289 289 290 289 287 286 286 287 286 285 284 284 283 282 282 281 281 282 281 280 281
299 298 298 298 297 297 295 296 296 296 295 296 295 294 292 290 289 289 289 289 288 288 288 289 289 289 288 287 286 285 285 285 284 283 283 282 281 281 281 280 280 281 279 280
298 298 298 297 296 295 295 296 296 295 295 294 294 292 291 291 291 290 289 289 289 288 288 288 288 288 288 287 286 286 285 284 283 283 282 281 281 280 280 279 279 279 278 279
298 297 297 297 296 295 295 295 294 294 294 293 293 293 292 292 292 291 290 290 289 288 288 287 287 287 286 286 285 285 284 284 283 283 282 281 280 279 279 278 278 278 277 278
298 298 298 297 296 296 295 295 294 294 294 293 293 293 292 292 292 291 291 290 290 288 287 288 286 286 286 285 285 284 283 283 282 282 281 280 279 278 277 278 278 278 277 277
Wind_Speed
6 11 12 1 3 3 5 8 7 9 10 16 14 15 18 18 14 4 8 12 13 13 10 15 19 20 19 17 14 12 10 13 16 13 12 10 10 8 7 10 11 13 14 16
6 12 20 4 6 9 8 10 11 10 3 5 7 14 11 15 15 14 15 12 13 13 14 15 16 17 16 16 15 13 12 13 11 11 12 14 12 11 13 13 13 15 17 19
3 6 10 1 3 9 11 8 12 6 4 12 4 17 19 19 17 17 14 12 12 11 13 15 16 16 16 15 13 13 12 12 13 13 14 15 13 13 13 15 16 16 18 19
4 6 5 3 7 13 16 10 5 6 10 12 7 12 9 10 19 17 16 12 10 13 15 17 17 16 14 14 14 14 14 14 15 15 15 15 13 12 14 15 17 17 19 20
4 5 4 4 7 9 7 5 6 6 16 21 19 21 15 13 14 16 14 12 15 19 21 18 18 15 14 14 14 15 15 15 14 14 15 14 12 14 15 17 16 18 18 21
3 5 4 3 5 13 9 2 3 20 19 22 16 8 4 11 14 13 18 18 18 19 21 17 12 12 12 13 13 14 16 16 13 12 13 11 14 15 16 15 16 19 19 21
3 5 3 1 6 8 6 6 9 19 16 11 6 8 13 11 12 17 18 19 20 20 19 15 13 12 11 9 10 11 16 15 10 11 11 11 13 15 15 14 15 15 18 18
3 5 1 4 3 8 6 7 16 14 16 21 21 18 14 12 11 11 13 16 20 19 18 15 13 12 11 10 9 9 15 16 13 10 10 11 12 13 14 13 16 18 17 21
3 3 3 11 20 14 17 20 17 21 17 23 19 17 14 10 10 11 15 18 19 19 16 13 11 12 10 10 10 11 12 17 15 12 11 12 13 16 15 16 17 16 15 20
7 10 15 19 18 17 18 19 17 18 18 18 20 16 14 12 11 13 18 19 20 18 16 12 10 10 9 10 11 13 12 15 18 18 15 11 11 15 15 17 17 14 14 16
15 14 21 16 17 18 19 19 18 16 16 17 19 16 15 12 11 15 17 20 19 17 17 12 11 11 10 10 12 13 11 9 10 17 21 18 11 12 15 15 17 15 14 15
5 6 16 12 15 19 19 18 18 21 17 16 19 15 14 11 15 17 18 19 18 18 16 12 12 12 12 12 15 12 9 10 8 7 8 11 14 13 12 12 17 22 19 20
8 11 18 17 17 20 20 18 18 19 16 16 16 20 20 15 18 20 21 20 19 17 15 14 13 16 13 15 17 11 13 14 15 5 8 9 10 11 9 12 13 21 26 26
20 23 15 16 13 19 20 19 26 24 22 22 21 20 21 19 20 19 19 19 16 15 15 16 15 17 16 17 18 15 18 22 22 15 15 15 11 15 9 11 14 19 23 28
11 13 19 17 18 18 22 19 17 15 14 15 20 19 19 16 15 17 18 16 15 14 15 15 17 18 17 18 19 20 20 20 20 21 22 21 23 24 22 22 19 18 22 29
19 19 17 19 18 16 17 16 16 14 13 15 16 17 19 22 21 19 17 15 17 15 14 14 16 17 16 18 18 19 19 19 20 21 22 22 23 22 23 21 21 21 21 27
19 15 16 16 16 14 15 13 13 12 16 17 17 20 21 20 19 19 18 16 14 13 14 14 16 17 17 17 17 17 17 18 19 21 21 20 20 21 21 20 20 21 21 25
13 13 12 16 15 15 14 15 19 19 16 20 21 20 18 17 14 16 16 15 15 13 13 15 14 17 17 17 16 16 16 18 19 19 20 22 20 21 22 21 20 20 21 22
12 11 9 15 19 18 18 19 20 22 23 23 21 17 21 20 20 17 15 14 13 13 11 9 13 15 16 15 14 16 17 17 19 21 22 23 24 24 24 23 20 21 21 22
13 23 24 23 27 26 21 21 24 23 24 24 22 19 17 18 18 17 14 12 10 10 9 10 13 14 13 13 16 18 19 20 18 17 18 20 22 22 23 22 20 20 21 23
18 22 22 23 21 22 23 25 24 21 23 23 23 19 19 18 17 17 17 14 8 7 8 11 13 11 12 13 16 18 17 18 18 17 15 18 19 17 17 20 20 20 21 23
20 18 21 22 21 19 24 25 25 25 24 22 22 24 23 18 15 14 12 13 10 8 10 14 16 10 14 13 15 15 14 15 17 16 15 16 18 17 19 19 18 20 22 22
21 23 23 22 21 21 26 27 26 25 21 20 20 20 19 17 16 17 10 8 9 10 13 17 18 13 13 14 15 15 14 13 14 15 14 14 16 15 18 18 18 21 23 23
22 22 22 25 27 23 16 22 23 22 20 18 20 18 20 16 10 10 13 12 11 11 12 14 13 14 13 14 14 15 15 13 11 12 12 12 15 15 15 19 19 18 23 21
24 22 23 23 18 15 25 25 23 21 20 19 18 20 20 16 16 15 12 11 12 11 9 9 11 11 13 13 12 11 11 11 10 11 12 14 16 18 14 18 18 18 22 21
21 18 22 26 25 27 25 22 20 19 21 20 18 19 15 13 13 13 9 8 14 11 9 9 9 12 12 11 10 9 9 9 9 10 12 15 17 20 18 19 18 20 22 20
24 26 23 22 25 23 22 21 21 20 20 21 19 17 15 13 13 13 14 14 18 13 8 8 6 7 8 6 5 6 8 8 8 11 12 14 16 18 17 18 18 21 23 20
Wind_Direction
139 157 163 4 50 41 130 158 154 177 161 187 176 169 160 151 153 157 88 120 115 109 101 93 84 78 69 58 46 33 24 17 16 26 36 49 52 61 31 2 350 340 331 329
67 146 158 156 50 76 100 104 85 122 107 79 169 158 156 162 156 155 146 125 108 98 90 81 77 73 65 51 41 38 33 35 21 16 20 26 24 5 354 349 342 337 333 328
107 136 126 60 143 85 92 84 136 146 195 64 163 156 160 163 155 131 123 114 102 94 89 88 80 69 59 51 40 40 27 12 358 349 347 353 351 348 348 343 338 334 334 336
134 128 143 112 130 109 100 89 53 111 121 98 99 70 77 123 128 123 114 108 100 102 96 85 73 66 59 44 34 21 9 358 354 342 340 339 340 342 339 338 333 334 339 340
165 124 131 99 157 153 136 167 152 110 124 120 112 86 55 76 99 107 110 113 113 106 93 80 68 61 56 40 27 19 6 353 343 343 341 337 339 334 328 329 329 328 333 337
178 96 86 260 172 135 112 13 47 143 149 142 153 109 138 110 107 109 108 107 106 103 86 82 80 72 60 42 28 14 355 346 342 341 335 341 337 329 328 323 324 332 332 336
61 86 26 114 348 162 82 205 130 139 153 126 104 106 133 120 107 108 115 117 116 109 107 98 84 76 63 39 23 2 359 357 349 341 334 335 340 349 347 348 347 353 344 353
70 81 130 356 33 135 148 83 109 102 109 107 110 116 123 121 120 123 127 124 126 119 112 99 86 73 62 39 19 9 5 9 6 3 1 351 5 347 350 356 355 353 354 354
78 81 2 71 102 100 107 108 114 118 126 118 118 123 124 118 106 101 104 114 119 116 118 110 91 63 63 42 28 21 14 22 16 15 13 21 15 9 19 12 7 357 8 353
75 54 83 88 84 93 100 103 105 103 110 109 112 111 109 105 97 89 95 103 110 105 114 107 88 64 50 30 14 17 23 34 33 27 18 16 26 22 27 21 9 353 5 352
94 95 81 70 90 104 100 101 99 94 102 107 108 104 106 99 96 98 97 98 93 88 102 91 72 59 34 19 4 356 351 5 31 48 40 38 46 34 35 37 33 24 9 0
128 105 109 107 99 97 96 101 104 105 97 94 103 108 106 102 106 105 100 97 91 89 90 77 61 35 24 19 16 16 359 351 345 358 24 32 36 41 47 43 38 36 35 26
126 110 106 104 97 95 96 96 97 98 102 104 100 104 100 102 98 96 92 88 85 83 77 66 49 27 40 24 28 38 15 17 17 330 340 352 5 13 5 25 28 25 27 30
114 107 93 106 111 102 100 99 98 97 97 100 102 98 100 101 95 90 86 88 86 79 67 53 42 38 30 38 42 49 46 57 55 44 22 27 12 8 23 21 23 21 21 22
95 97 115 114 107 105 108 106 100 100 101 98 102 103 101 99 97 97 95 89 81 78 67 52 44 36 37 50 59 59 56 57 57 52 50 49 48 41 46 39 30 22 18 18
112 115 117 117 116 116 114 109 109 109 109 111 107 108 110 110 111 107 101 91 81 69 57 55 45 35 50 58 63 64 56 57 59 50 45 42 39 34 33 34 26 21 27 23
119 125 127 124 128 131 127 126 123 123 123 119 121 119 120 119 116 111 103 90 82 75 58 57 47 49 65 64 64 64 59 55 55 50 43 40 38 35 33 32 26 24 22 23
114 133 134 137 140 132 130 127 125 126 125 130 125 125 122 123 121 126 114 89 73 73 61 55 55 60 74 68 65 61 60 59 53 50 47 43 38 39 36 33 25 20 17 17
129 130 118 129 132 128 126 124 123 122 122 128 129 124 124 123 123 119 108 91 73 69 54 64 55 66 82 73 70 62 62 65 61 56 50 43 40 40 35 31 23 20 16 15
106 105 106 111 118 123 120 121 121 121 128 129 131 126 121 125 123 115 103 92 80 73 76 64 51 65 98 82 71 71 70 64 63 59 49 44 39 36 30 27 22 19 17 15
117 114 112 112 114 117 120 126 126 124 127 128 124 134 138 136 129 125 104 91 90 78 84 53 43 61 128 102 82 77 76 67 63 59 50 47 41 36 23 20 17 14 10 10
118 115 114 115 115 115 126 131 129 132 136 135 129 125 132 138 131 116 108 97 82 96 74 49 49 89 133 106 85 81 80 73 65 58 57 47 40 35 24 14 14 8 6 5
115 115 114 113 115 115 120 125 132 141 145 145 144 144 141 140 142 139 132 115 78 97 70 58 61 92 126 108 92 87 88 87 70 62 57 46 39 34 27 21 15 9 7 2
114 113 114 119 121 117 108 121 124 127 129 145 166 162 154 143 137 140 130 133 98 100 81 64 69 74 117 114 105 94 89 87 74 55 48 40 29 23 18 13 9 5 1 1
123 124 127 123 115 120 129 128 124 124 121 118 144 157 153 149 132 139 144 155 145 106 85 75 66 91 102 108 100 85 74 65 49 31 26 19 12 8 5 1 1 358 353 353
126 129 136 141 142 144 146 148 146 147 141 134 133 151 155 151 148 150 144 156 160 140 113 78 79 95 96 95 88 72 54 44 30 21 12 7 2 1 356 351 352 350 350 349
132 138 140 144 155 158 162 164 161 166 164 159 152 156 156 160 157 153 141 137 158 158 128 78 74 97 104 89 57 35 25 18 8 359 358 356 353 354 350 344 343 340 340 342